Location: ??
(35.5052°N, 139.7262°E)
Time: 03:49:43
(UTC+00:00)

Cosmos 1346 Rocket - Pass Details

Date: 20 June 2021
Orbit: 526 x 551 km, 81.2° (Epoch: 26 July)

Event Time Altitude Azimuth Distance (km) Brightness Sun altitude
Exits shadow 12:13:47 21° 64° (ENE) 1,245 4.5 -21.3°
Drops below altitude 10° 12:15:52 10° 36° (NE) 1,822 5.7 -21.6°
Sets 12:18:19 0° 23° (NNE) 2,723 6.8 -21.9°
